Location: Bartlow
(52.0833°N, 0.3167°E)
Time: 19:38:23
(UTC+00:00)

Thor Agena Rocket - Pass Details

Date: 26 September 2023
Orbit: 757 x 806 km, 99.0° (Epoch: 10 December)

Event Time Altitude Azimuth Distance (km) Brightness Sun altitude
Rises 04:11:13 0° 10° (N) 3,305 7.2 -15.8°
Reaches altitude 10° 04:13:45 10° 1° (N) 2,378 6.3 -15.5°
Maximum altitude 04:18:20 32° 300° (WNW) 1,366 4.5 -14.8°
Enters shadow 04:20:45 22° 257° (WSW) 1,713 4.7 -14.4°
